When you browse on this site, cookies collect data to enhance your experience and personalize the content and advertising you see.
Visit our Privacy Policy to learn more. By continuing to use the site, you agree to this use of cookies and data.
  • In United Kingdom
  • List of Countries
  • For 7 days
  • Water Temperature
  • Weather Map
  • Weather Widgets
  • user-avatar
    Login

    Hourly Weather Mansa Konko

    Today, 25 May, Monday

    Time Temperature Precipitation Wind Pressure Humidity
    00:00 +26°C° 0 mm 3 mps 759 mmHg 72%
    01:00 +25°C° 0 mm 2 mps 759 mmHg 75%
    02:00 +25°C° 0 mm 2 mps 758 mmHg 79%
    03:00 +24°C° 0 mm 2 mps 758 mmHg 81%
    04:00 +24°C° 0 mm 2 mps 758 mmHg 83%
    05:00 +23°C° 0 mm 2 mps 758 mmHg 85%
    06:00 +25°C° 0 mm 2 mps 759 mmHg 75%
    07:00 +27°C° 0 mm 2 mps 759 mmHg 65%
    08:00 +28°C° 0 mm 2 mps 760 mmHg 54%
    09:00 +32°C° 0 mm 2 mps 759 mmHg 44%
    10:00 +37°C° 0 mm 2 mps 759 mmHg 34%
    11:00 +40°C° 0 mm 2 mps 758 mmHg 23%
    12:00 +42°C° 0 mm 2 mps 758 mmHg 19%
    13:00 +43°C° 0 mm 2 mps 757 mmHg 15%
    14:00 +46°C° 0 mm 2 mps 756 mmHg 11%
    15:00 +46°C° 0 mm 2 mps 755 mmHg 10%
    16:00 +45°C° 0 mm 2 mps 755 mmHg 9%
    17:00 +45°C° 0 mm 2 mps 755 mmHg 9%
    18:00 +39°C° 0 mm 3 mps 755 mmHg 24%
    19:00 +35°C° 0 mm 4 mps 756 mmHg 40%
    20:00 +29°C° 0 mm 5 mps 757 mmHg 55%
    21:00 +28°C° 0 mm 5 mps 757 mmHg 60%
    22:00 +27°C° 0 mm 5 mps 758 mmHg 65%
    23:00 +26°C° 0 mm 4 mps 758 mmHg 69%

    Tomorrow, 26 May, Tuesday

    Time Temperature Precipitation Wind Pressure Humidity
    00:00 +25°C° 0 mm 4 mps 758 mmHg 72%
    01:00 +23°C° 0 mm 4 mps 758 mmHg 74%
    02:00 +24°C° 0 mm 3 mps 757 mmHg 76%
    03:00 +22°C° 0 mm 3 mps 758 mmHg 77%
    04:00 +22°C° 0 mm 3 mps 758 mmHg 79%
    05:00 +21°C° 0 mm 3 mps 758 mmHg 81%
    06:00 +24°C° 0 mm 2 mps 758 mmHg 71%
    07:00 +26°C° 0 mm 2 mps 758 mmHg 61%
    08:00 +28°C° 0 mm 2 mps 759 mmHg 51%
    09:00 +32°C° 0 mm 2 mps 758 mmHg 40%
    10:00 +37°C° 0 mm 2 mps 758 mmHg 28%
    11:00 +40°C° 0 mm 2 mps 758 mmHg 17%
    12:00 +42°C° 0 mm 2 mps 757 mmHg 15%
    13:00 +45°C° 0 mm 2 mps 756 mmHg 12%
    14:00 +46°C° 0 mm 2 mps 755 mmHg 9%
    15:00 +46°C° 0 mm 2 mps 755 mmHg 10%
    16:00 +45°C° 0 mm 2 mps 755 mmHg 11%
    17:00 +43°C° 0 mm 2 mps 754 mmHg 11%
    18:00 +39°C° 0 mm 3 mps 755 mmHg 27%
    19:00 +34°C° 0 mm 4 mps 756 mmHg 42%
    20:00 +28°C° 0 mm 5 mps 757 mmHg 57%
    21:00 +27°C° 0 mm 5 mps 757 mmHg 63%
    22:00 +26°C° 0 mm 4 mps 758 mmHg 70%
    23:00 +25°C° 0 mm 4 mps 758 mmHg 76%

    Day after tomorrow, 27 May, Wednesday

    Time Temperature Precipitation Wind Pressure Humidity
    00:00 +25°C° 0 mm 3 mps 758 mmHg 80%
    01:00 +24°C° 0 mm 3 mps 758 mmHg 84%
    02:00 +22°C° 0 mm 3 mps 758 mmHg 89%
    03:00 +23°C° 0 mm 2 mps 758 mmHg 91%
    04:00 +23°C° 0 mm 2 mps 758 mmHg 93%
    05:00 +21°C° 0 mm 2 mps 758 mmHg 95%
    06:00 +24°C° 0 mm 2 mps 758 mmHg 83%
    07:00 +26°C° 0 mm 2 mps 758 mmHg 72%
    08:00 +28°C° 0 mm 2 mps 759 mmHg 60%
    09:00 +32°C° 0 mm 2 mps 758 mmHg 47%
    10:00 +36°C° 0 mm 2 mps 758 mmHg 34%
    11:00 +40°C° 0 mm 2 mps 758 mmHg 21%
    12:00 +42°C° 0 mm 2 mps 757 mmHg 17%
    13:00 +44°C° 0 mm 1 mps 756 mmHg 13%
    14:00 +47°C° 0 mm 1 mps 755 mmHg 10%
    15:00 +46°C° 0 mm 1 mps 755 mmHg 11%
    16:00 +45°C° 0 mm 1 mps 755 mmHg 11%
    17:00 +45°C° 0 mm 2 mps 755 mmHg 12%
    18:00 +40°C° 0 mm 3 mps 755 mmHg 24%
    19:00 +36°C° 0 mm 4 mps 756 mmHg 35%
    20:00 +30°C° 0 mm 5 mps 757 mmHg 47%
    21:00 +29°C° 0 mm 5 mps 758 mmHg 54%
    22:00 +28°C° 0 mm 4 mps 758 mmHg 61%
    23:00 +27°C° 0 mm 4 mps 759 mmHg 68%

    28 May, Thursday

    Time Temperature Precipitation Wind Pressure Humidity
    00:00 +26°C° 0 mm 3 mps 758 mmHg 73%
    01:00 +25°C° 0 mm 3 mps 758 mmHg 78%
    02:00 +25°C° 0 mm 2 mps 757 mmHg 82%
    03:00 +24°C° 0 mm 2 mps 758 mmHg 84%
    04:00 +24°C° 0 mm 1 mps 758 mmHg 87%
    05:00 +24°C° 0 mm 1 mps 758 mmHg 89%
    06:00 +25°C° 0 mm 1 mps 758 mmHg 79%
    07:00 +27°C° 0 mm 2 mps 758 mmHg 69%
    08:00 +29°C° 0 mm 2 mps 759 mmHg 59%
    09:00 +32°C° 0 mm 2 mps 758 mmHg 47%
    10:00 +36°C° 0 mm 2 mps 758 mmHg 35%
    11:00 +40°C° 0 mm 2 mps 758 mmHg 24%
    12:00 +42°C° 0 mm 2 mps 757 mmHg 20%
    13:00 +44°C° 0 mm 1 mps 756 mmHg 17%
    14:00 +46°C° 0 mm 1 mps 755 mmHg 13%
    15:00 +45°C° 0 mm 1 mps 755 mmHg 13%
    16:00 +45°C° 0 mm 2 mps 755 mmHg 14%
    17:00 +45°C° 0 mm 2 mps 755 mmHg 14%
    18:00 +40°C° 0 mm 3 mps 755 mmHg 23%
    19:00 +35°C° 0 mm 4 mps 756 mmHg 32%
    20:00 +30°C° 0 mm 5 mps 757 mmHg 42%
    21:00 +29°C° 0 mm 4 mps 757 mmHg 49%
    22:00 +28°C° 0 mm 3 mps 758 mmHg 56%
    23:00 +27°C° 0 mm 3 mps 758 mmHg 63%

    29 May, Friday

    Time Temperature Precipitation Wind Pressure Humidity
    00:00 +26°C° 0 mm 2 mps 758 mmHg 67%
    01:00 +26°C° 0 mm 2 mps 758 mmHg 72%
    02:00 +25°C° 0 mm 2 mps 758 mmHg 76%
    03:00 +25°C° 0 mm 2 mps 758 mmHg 78%
    04:00 +25°C° 0 mm 2 mps 758 mmHg 81%
    05:00 +24°C° 0 mm 2 mps 758 mmHg 83%
    06:00 +26°C° 0 mm 2 mps 758 mmHg 73%
    07:00 +28°C° 0 mm 3 mps 758 mmHg 63%
    08:00 +30°C° 0 mm 3 mps 758 mmHg 52%
    09:00 +34°C° 0 mm 3 mps 758 mmHg 42%
    10:00 +37°C° 0 mm 3 mps 757 mmHg 32%
    11:00 +40°C° 0 mm 3 mps 757 mmHg 21%
    12:00 +42°C° 0 mm 3 mps 756 mmHg 21%
    13:00 +44°C° 0 mm 3 mps 756 mmHg 20%
    14:00 +45°C° 0 mm 3 mps 755 mmHg 19%
    15:00 +44°C° 0 mm 3 mps 755 mmHg 21%
    16:00 +43°C° 0 mm 4 mps 754 mmHg 22%
    17:00 +42°C° 0 mm 5 mps 754 mmHg 23%
    18:00 +39°C° 0 mm 5 mps 755 mmHg 30%
    19:00 +35°C° 0 mm 5 mps 756 mmHg 36%
    20:00 +30°C° 0 mm 4 mps 757 mmHg 43%
    21:00 +30°C° 0.2 mm 4 mps 757 mmHg 47%
    22:00 +29°C° 0.2 mm 3 mps 758 mmHg 51%
    23:00 +28°C° 0.2 mm 2 mps 758 mmHg 55%

    30 May, Saturday

    Time Temperature Precipitation Wind Pressure Humidity
    00:00 +28°C° 0.1 mm 2 mps 758 mmHg 57%
    01:00 +28°C° 0.1 mm 2 mps 758 mmHg 59%
    02:00 +27°C° 0.1 mm 3 mps 757 mmHg 60%
    03:00 +27°C° 0.1 mm 3 mps 757 mmHg 61%
    04:00 +27°C° 0.1 mm 2 mps 757 mmHg 62%
    05:00 +27°C° 0.1 mm 2 mps 757 mmHg 63%
    06:00 +28°C° 0 mm 2 mps 757 mmHg 60%
    07:00 +28°C° 0 mm 2 mps 758 mmHg 57%
    08:00 +29°C° 0 mm 2 mps 758 mmHg 53%
    09:00 +31°C° 0 mm 2 mps 758 mmHg 49%
    10:00 +32°C° 0 mm 2 mps 757 mmHg 45%
    11:00 +34°C° 0 mm 2 mps 757 mmHg 41%
    12:00 +36°C° 0 mm 2 mps 757 mmHg 37%
    13:00 +38°C° 0 mm 3 mps 756 mmHg 33%
    14:00 +40°C° 0 mm 3 mps 755 mmHg 29%
    15:00 +41°C° 0 mm 4 mps 755 mmHg 29%
    16:00 +41°C° 0 mm 4 mps 755 mmHg 29%
    17:00 +41°C° 0 mm 5 mps 755 mmHg 29%
    18:00 +37°C° 0 mm 5 mps 755 mmHg 35%
    19:00 +34°C° 0 mm 5 mps 756 mmHg 41%
    20:00 +32°C° 0 mm 5 mps 756 mmHg 47%
    21:00 +30°C° 0 mm 4 mps 757 mmHg 48%
    22:00 +29°C° 0 mm 4 mps 757 mmHg 50%
    23:00 +28°C° 0 mm 3 mps 757 mmHg 52%
    Show more